This is the latest recevied weather packets stored in our database for station/object KD4MBW. If no packets are shown the sender has not sent any weather packets the latest 10 day(s).
| Time | Temp. | Humidity | Pressure | Rain* | Wind** | Luminosity | Snow |
|---|---|---|---|---|---|---|---|
| 1788130899 | 28.89° C | 83% | 1016.5 hPa | 0 mm | - | 127 W/m² | - |
| 1788130594 | 28.89° C | 82% | 1016.6 hPa | 0 mm | - | 148 W/m² | - |
| 1788130289 | 28.89° C | 84% | 1016.7 hPa | 0 mm | - | 175 W/m² | - |
| 1788129987 | 27.78° C | 87% | 1016.5 hPa | 0 mm | - | 206 W/m² | - |
| 1788129678 | 27.22° C | 87% | 1017 hPa | 0 mm | - | 224 W/m² | - |
| 1788129375 | 27.22° C | 89% | 1016.6 hPa | 0 mm | - | 235 W/m² | - |
| 1788129074 | 26.67° C | 87% | 1016.4 hPa | 0 mm | - | 182 W/m² | - |
| 1788128769 | 26.67° C | 89% | 1016.7 hPa | 0 mm | - | 193 W/m² | - |
| 1788128465 | 26.67° C | 90% | 1016.6 hPa | 0 mm | - | 169 W/m² | - |
| 1788128161 | 27.22° C | 93% | 1016.5 hPa | 0 mm | - | 148 W/m² | - |
| 1788127857 | 27.78° C | 94% | 1016.8 hPa | 0 mm | - | 215 W/m² | - |
| 1788127551 | 27.78° C | 95% | 1016.6 hPa | 0 mm | - | 262 W/m² | - |
| 1788127249 | 27.78° C | 95% | 1016.6 hPa | 0 mm | - | 183 W/m² | - |
| 1788126943 | 27.78° C | 91% | 1016.4 hPa | 0 mm | - | 176 W/m² | - |
| 1788126638 | 27.78° C | 90% | 1016.3 hPa | 0 mm | - | 181 W/m² | - |
| 1788126328 | 27.22° C | 94% | 1016.5 hPa | 0 mm | - | 224 W/m² | - |
| 1788126027 | 26.67° C | 95% | 1016.4 hPa | 1.78 mm | - | 206 W/m² | - |
| 1788125728 | 26.67° C | 95% | 1016.5 hPa | 1.78 mm | - | 199 W/m² | - |
| 1788125423 | 25.56° C | 94% | 1016.4 hPa | 0 mm | - | 191 W/m² | - |
| 1788125119 | 26.11° C | 99% | 1016.7 hPa | 4.32 mm | - | 153 W/m² | - |
| 1788124814 | 26.67° C | 96% | 1017.1 hPa | 16.26 mm | - | 132 W/m² | - |
| 1788124509 | 27.22° C | 95% | 1017.5 hPa | 10.16 mm | - | 99 W/m² | - |
| 1788124203 | 28.89° C | 85% | 1017.3 hPa | 0 mm | - | 123 W/m² | - |
| 1788123897 | 29.44° C | 84% | 1017 hPa | 0 mm | - | 166 W/m² | - |
| 1788123596 | 29.44° C | 86% | 1016.6 hPa | 0 mm | - | 187 W/m² | - |
* Rain latest hour (hover to see other rain measurements)
** Current wind speed in m/s (hover to see current wind gust speed)